Change the Weather History Date:

Tuesday, March 26, 2013

  Actual Average Record
Temperature  
Mean Temperature 48 °F -  
Max Temperature 53 °F - - ()
Min Temperature 44 °F - - ()
Degree Days  
Heating Degree Days 17    
Moisture  
Dew Point 29 °F    
Average Humidity 47    
Maximum Humidity 60    
Minimum Humidity 38    
Precipitation  
Precipitation 0.00 in - - ()
Sea Level Pressure  
Sea Level Pressure 30.33 in    
Wind  
Wind Speed 11 mph (NNW)    
Max Wind Speed 17 mph    
Max Gust Speed 25 mph    
Visibility 10 miles    
Events      
T = Trace of Precipitation, MM = Missing Value Source: NWS Daily Summary

Daily Weather History Graph

Daily Weather History Graph

Search for Another Location

Airport or City:

Trip Planner

Search our weather history database for the weather conditions in past years. The results will help you decide how hot, cold, wet, or windy it might be!

Date:

Astronomy

Mar. 26, 2013 Rise Set
Actual Time 6:54 AM CDT 7:12 PM CDT
Civil Twilight 6:30 AM CDT 7:36 PM CDT
Nautical Twilight 6:02 AM CDT 8:04 PM CDT
Astronomical Twilight 5:34 AM CDT 8:32 PM CDT
Moon 6:48 PM CDT (3/26) 6:09 AM CDT (3/26)
Length of Visible Light 13h 06m
Length of Day
12h 18m
Waxing Gibbous, 99% of the Moon is Illuminated
Mar 26
Waxing Gibbous
Mar 27
Full
Apr 2
Last Quarter
Apr 10
New
Apr 18
First Quarter

Hourly Weather History & Observations

Time (CDT) Temp. Windchill Dew Point Humidity Pressure Visibility Wind Dir Wind Speed Gust Speed Precip Events Conditions
12:51 AM 51.1 °F - 35.1 °F 54% 30.25 in 10.0 mi NNW 8.1 mph - N/A   Clear
1:51 AM 51.1 °F - 32.0 °F 48% 30.25 in 10.0 mi North 15.0 mph 21.9 mph N/A   Clear
2:51 AM 50.0 °F - 27.0 °F 41% 30.27 in 10.0 mi NNW 15.0 mph - N/A   Clear
3:51 AM 48.9 °F - 34.0 °F 56% 30.28 in 10.0 mi North 9.2 mph 18.4 mph N/A   Clear
4:51 AM 46.9 °F - 32.0 °F 56% 30.30 in 10.0 mi North 9.2 mph 20.7 mph N/A   Clear
5:51 AM 46.0 °F 41.4 °F 30.9 °F 56% 30.32 in 10.0 mi North 9.2 mph 18.4 mph N/A   Clear
6:51 AM 44.1 °F 38.6 °F 30.9 °F 60% 30.35 in 10.0 mi North 10.4 mph 17.3 mph N/A   Clear
7:51 AM 44.1 °F 36.8 °F 28.0 °F 53% 30.37 in 10.0 mi NNW 16.1 mph 21.9 mph N/A   Clear
8:51 AM 45.0 °F 38.5 °F 28.0 °F 52% 30.39 in 10.0 mi NNW 13.8 mph 19.6 mph N/A   Clear
9:51 AM 46.0 °F 39.0 °F 25.0 °F 44% 30.40 in 10.0 mi NNW 17.3 mph 25.3 mph N/A   Clear
10:51 AM 46.9 °F - 24.1 °F 41% 30.40 in 10.0 mi NNW 16.1 mph 24.2 mph N/A   Clear
11:51 AM 48.9 °F - 26.1 °F 41% 30.39 in 10.0 mi NW 13.8 mph - N/A   Clear
12:51 PM 48.0 °F - 26.1 °F 42% 30.37 in 10.0 mi NNW 16.1 mph 21.9 mph N/A   Clear
1:51 PM 48.0 °F - 27.0 °F 44% 30.36 in 10.0 mi NNW 12.7 mph 21.9 mph N/A   Clear
2:51 PM 50.0 °F - 28.0 °F 43% 30.34 in 10.0 mi NW 12.7 mph - N/A   Clear
3:51 PM 51.1 °F - 27.0 °F 39% 30.32 in 10.0 mi NNW 15.0 mph 21.9 mph N/A   Clear
4:51 PM 52.0 °F - 28.0 °F 40% 30.31 in 10.0 mi NNW 12.7 mph - N/A   Clear
5:51 PM 52.0 °F - 27.0 °F 38% 30.31 in 10.0 mi NW 11.5 mph - N/A   Clear
6:51 PM 51.1 °F - 28.9 °F 43% 30.31 in 10.0 mi NW 8.1 mph - N/A   Clear
7:51 PM 50.0 °F - 30.9 °F 48% 30.32 in 10.0 mi NW 8.1 mph - N/A   Clear
8:51 PM 50.0 °F - 32.0 °F 50% 30.34 in 10.0 mi NW 5.8 mph - N/A   Clear
9:51 PM 51.1 °F - 32.0 °F 48% 30.35 in 10.0 mi North 4.6 mph - N/A   Clear
10:51 PM 51.1 °F - 33.1 °F 50% 30.37 in 10.0 mi North 4.6 mph - N/A   Clear
11:51 PM 50.0 °F - 32.0 °F 50% 30.37 in 10.0 mi North 6.9 mph - N/A   Clear